Location: ??????
(56.0120°N, 39.1740°E)
Time: 17:28:09
(UTC+00:00)

Cosmos 1023 Rocket - Pass Details

Date: 14 April 2026
Orbit: 732 x 766 km, 74.1° (Epoch: 15 May)

Event Time Altitude Azimuth Distance (km) Brightness Sun altitude
Rises 19:19:48 0° 331° (NNW) 3,207 9.4 -19.5°
Reaches altitude 10° 19:22:12 10° 334° (NNW) 2,273 8.2 -19.7°
Maximum altitude 19:27:21 71° 59° (ENE) 787 4.5 -20.1°
Enters shadow 19:29:01 42° 130° (SE) 1,050 4.7 -20.2°
